Starlink 11325

operational
NORAD ID: 61538 Int'l Des: 2024-184 Owner: SPXS Country: US Constellation: starlink
LEOCIRCULAR

Starlink 11325について

説明を読み込み中...

リアルタイム位置

3D地球を読み込み中...

次回通過

高度履歴

Altitude vs Time

uPlot chart will show altitude changes over time

軌道要素

1 61538U 24184G 25305.98728408 .00000412 00000-0 82675-5 0 9993
2 61538 53.1584 145.5396 0001393 89.8604 270.2573 15.69703470 60368
Epoch: Nov 1, 2025 • Age: 37 hours

現在のステータス

高度 364.6 km
速度 7.70 km/s
衛星直下点 49.71°N, 33.7°W
打ち上げ日 Oct 15, 2024
運用期間 1 years
タイプ internet

技術仕様

分類 Payload
質量 960.00 kg
乾燥質量 910.00 kg
総質量 960.00 kg
長さ 0.30 m
直径 4.10 m
スパン 29.00 m
形状 Box + pan
製造者 SPXS
バスタイプ Starlink V2MD
フェーズステータス In Orbit
所有者/国 SPXS/US

大規模コンステレーション

Loading constellations...